K1LVA Weather Reports


time (UTC)temp
C
wind
direction
speed
KPH
gust
KPH
rain 1hr
cm
rain 24hr
cm
rain mn
cm
humidity
%
barometer
mb
20260503224231 22 309 0.0 1.6 0.00 0.00 0.00 36 1016.8
20260503223728 22 28 0.0 0.0 0.00 0.00 0.00 37 1016.8
20260503223226 22 285 0.0 0.0 0.00 0.00 0.00 37 1016.7
20260503222722 22 345 3.2 3.2 0.00 0.00 0.00 37 1016.8
20260503222220 22 300 1.6 1.6 0.00 0.00 0.00 38 1016.7
20260503221717 22 322 1.6 3.2 0.00 0.00 0.00 38 1016.6
20260503221214 23 286 0.0 1.6 0.00 0.00 0.00 38 1016.5
20260503220706 22 265 0.0 1.6 0.00 0.00 0.00 39 1016.5
20260503220202 22 269 3.2 4.8 0.00 0.00 0.00 37 1016.7
20260503215659 22 355 3.2 4.8 0.00 0.00 0.00 38 1016.7
20260503215156 22 344 4.8 4.8 0.00 0.00 0.00 36 1016.5
20260503214654 22 317 1.6 3.2 0.00 0.00 0.00 37 1016.9
20260503214149 22 286 0.0 3.2 0.00 0.00 0.00 37 1016.8
20260503213644 22 180 4.8 4.8 0.00 0.00 0.00 37 1016.6
20260503213140 23 3 3.2 3.2 0.00 0.00 0.00 36 1016.9
20260503212638 22 327 3.2 3.2 0.00 0.00 0.00 35 1016.7
20260503212135 23 280 1.6 1.6 0.00 0.00 0.00 37 1016.8
20260503211633 22 257 1.6 1.6 0.00 0.00 0.00 38 1016.7
20260503211127 22 317 0.0 0.0 0.00 0.00 0.00 39 1016.7
20260503210624 22 252 1.6 1.6 0.00 0.00 0.00 37 1016.8
20260503210121 22 145 9.7 14.5 0.00 0.00 0.00 38 1017.0
20260503205617 22 326 1.6 3.2 0.00 0.00 0.00 35 1016.8
20260503205113 22 182 4.8 8.0 0.00 0.00 0.00 35 1016.7
20260503204610 22 269 3.2 3.2 0.00 0.00 0.00 37 1016.9
20260503204108 22 309 1.6 1.6 0.00 0.00 0.00 37 1016.9
20260503203605 22 344 11.3 12.9 0.00 0.00 0.00 36 1016.8
20260503203102 22 18 4.8 8.0 0.00 0.00 0.00 36 1017.1
20260503202559 22 271 1.6 3.2 0.00 0.00 0.00 39 1017.0
20260503202056 22 175 3.2 3.2 0.00 0.00 0.00 38 1017.0
20260503201555 22 165 1.6 3.2 0.00 0.00 0.00 40 1017.0
20260503201051 22 48 1.6 1.6 0.00 0.00 0.00 38 1017.2
20260503200547 22 157 6.4 9.7 0.00 0.00 0.00 39 1017.4
20260503200044 22 253 1.6 1.6 0.00 0.00 0.00 37 1017.3
20260503195541 22 138 4.8 9.7 0.00 0.00 0.00 35 1017.5
20260503195038 22 231 6.4 8.0 0.00 0.00 0.00 37 1017.5
20260503194535 22 290 1.6 3.2 0.00 0.00 0.00 40 1017.6
20260503194036 22 341 8.0 9.7 0.00 0.00 0.00 38 1017.7
20260503193533 21 222 1.6 1.6 0.00 0.00 0.00 40 1017.6
20260503193028 21 160 6.4 9.7 0.00 0.00 0.00 38 1017.8
20260503192524 21 134 3.2 4.8 0.00 0.00 0.00 37 1018.0
20260503192020 22 126 4.8 4.8 0.00 0.00 0.00 37 1018.2
20260503191517 22 329 6.4 9.7 0.00 0.00 0.00 39 1018.1
20260503191014 21 313 4.8 4.8 0.00 0.00 0.00 41 1018.2
20260503190511 21 169 3.2 3.2 0.00 0.00 0.00 43 1018.5
20260503190008 21 142 8.0 9.7 0.00 0.00 0.00 40 1018.5
20260503185503 21 180 8.0 9.7 0.00 0.00 0.00 41 1018.6
20260503184958 21 119 4.8 4.8 0.00 0.00 0.00 41 1018.4
20260503184455 21 161 1.6 3.2 0.00 0.00 0.00 44 1018.6
20260503183951 21 150 9.7 14.5 0.00 0.00 0.00 42 1018.8
20260503183448 21 11 0.0 0.0 0.00 0.00 0.00 46 1018.7
20260503182945 21 127 9.7 11.3 0.00 0.00 0.00 45 1018.7
20260503182444 20 8 0.0 1.6 0.00 0.00 0.00 42 1018.9
20260503181940 21 114 8.0 9.7 0.00 0.00 0.00 42 1019.0
20260503181437 21 352 3.2 8.0 0.00 0.00 0.00 43 1019.1
20260503180933 21 356 8.0 9.7 0.00 0.00 0.00 44 1019.0
20260503180432 20 261 4.8 4.8 0.00 0.00 0.00 44 1019.3
20260503175929 20 341 12.9 16.1 0.00 0.00 0.00 46 1019.0
20260503175427 20 356 6.4 8.0 0.00 0.00 0.00 47 1019.2
20260503174922 20 337 1.6 1.6 0.00 0.00 0.00 45 1019.2
20260503174421 21 156 6.4 9.7 0.00 0.00 0.00 45 1019.5
20260503173921 21 144 1.6 1.6 0.00 0.00 0.00 45 1019.4
20260503173417 20 152 6.4 8.0 0.00 0.00 0.00 47 1019.3
20260503172914 20 82 8.0 9.7 0.00 0.00 0.00 44 1019.0
20260503172412 20 168 3.2 4.8 0.00 0.00 0.00 49 1019.5
20260503171907 20 321 4.8 4.8 0.00 0.00 0.00 49 1019.4
20260503171404 20 4 1.6 3.2 0.00 0.00 0.00 49 1019.4
20260503170902 20 3 4.8 8.0 0.00 0.00 0.00 46 1019.5
20260503170358 20 218 1.6 1.6 0.00 0.00 0.00 49 1019.5
20260503150750 17 339 0.0 1.6 0.00 0.00 0.00 75 1020.5
20260503150246 17 184 4.8 4.8 0.00 0.00 0.00 76 1020.3
20260503140211 13 329 0.0 1.6 0.00 0.00 0.00 99 1020.3
20260503131140 10 306 3.2 3.2 0.00 0.00 0.00 99 1020.0
20260503130638 10 256 1.6 3.2 0.00 0.00 0.00 99 1019.9
20260503130135 10 21 0.0 0.0 0.00 0.00 0.00 99 1020.0
20260503110528 7 335 0.0 0.0 0.00 0.00 0.00 99 1018.9
20260503090415 6 322 0.0 0.0 0.00 0.00 0.00 99 1017.6
20260503081341 7 319 0.0 0.0 0.00 0.00 0.00 99 1017.3
20260503080838 7 320 0.0 0.0 0.00 0.00 0.00 99 1017.3
20260503080335 7 319 0.0 0.0 0.00 0.00 0.00 99 1017.1
20260503072805 8 323 0.0 0.0 0.00 0.00 0.00 99 1016.9
20260503072305 8 326 0.0 0.0 0.00 0.00 0.00 99 1017.0
20260503071758 8 329 0.0 0.0 0.00 0.00 0.00 99 1016.9
20260503071256 8 329 0.0 0.0 0.00 0.00 0.00 99 1016.8
20260503070752 8 341 0.0 0.0 0.00 0.00 0.00 99 1016.6
20260503070250 8 338 0.0 0.0 0.00 0.00 0.00 99 1016.6
20260503060209 8 324 0.0 0.0 0.00 0.00 0.00 99 1016.4
20260503054656 9 333 0.0 0.0 0.00 0.00 0.00 99 1016.4
20260503054153 9 327 0.0 0.0 0.00 0.00 0.00 99 1016.4
20260503053651 9 314 0.0 0.0 0.00 0.00 0.00 99 1016.4
20260503053150 9 317 0.0 0.0 0.00 0.00 0.00 99 1016.3
20260503052646 9 327 0.0 0.0 0.00 0.00 0.00 99 1016.4
20260503052142 9 322 0.0 0.0 0.00 0.00 0.00 99 1016.5
20260503051637 9 352 0.0 0.0 0.00 0.00 0.00 99 1016.2
20260503051135 9 329 0.0 0.0 0.00 0.00 0.00 99 1016.4
20260503050632 9 316 0.0 0.0 0.00 0.00 0.00 99 1016.4
20260503050129 9 319 0.0 0.0 0.00 0.00 0.00 99 1016.3
20260503045626 9 323 0.0 0.0 0.00 0.00 0.00 99 1016.3
20260503045123 10 321 0.0 0.0 0.00 0.00 0.00 99 1016.4
20260503044620 10 325 0.0 0.0 0.00 0.00 0.00 99 1016.3
20260503044117 10 346 0.0 0.0 0.00 0.00 0.00 99 1016.2
20260503043614 10 321 0.0 0.0 0.00 0.00 0.00 99 1016.3
20260503043110 10 347 0.0 0.0 0.00 0.00 0.00 99 1016.2
20260503042607 10 338 0.0 0.0 0.00 0.00 0.00 99 1016.1
20260503042103 10 341 1.6 1.6 0.00 0.00 0.00 99 1016.0
20260503041600 10 341 0.0 0.0 0.00 0.00 0.00 99 1016.1
20260503041058 10 332 0.0 0.0 0.00 0.00 0.00 99 1016.0
20260503040555 10 329 0.0 0.0 0.00 0.00 0.00 99 1015.8
20260503040052 11 308 0.0 0.0 0.00 0.00 0.00 99 1015.8
20260503035549 11 14 0.0 0.0 0.00 2.18 2.18 99 1015.7
20260503035047 11 262 0.0 0.0 0.00 2.18 2.18 99 1015.8
20260503034543 11 163 0.0 0.0 0.00 2.18 2.18 99 1015.7
20260503034041 10 171 0.0 0.0 0.00 2.18 2.18 99 1016.1
20260503033538 10 216 0.0 0.0 0.00 2.18 2.18 99 1016.1
20260503033036 10 260 0.0 0.0 0.00 2.18 2.18 99 1016.3
20260503032534 10 270 0.0 0.0 0.00 2.18 2.18 99 1016.3
20260503032031 10 309 0.0 0.0 0.00 2.18 2.18 99 1016.2
20260503031529 10 251 0.0 0.0 0.00 2.18 2.18 99 1016.2
20260503031026 10 302 0.0 0.0 0.00 2.18 2.18 99 1016.3
20260503030522 11 49 0.0 1.6 0.00 2.18 2.18 99 1016.5
20260503030019 11 27 0.0 0.0 0.00 2.18 2.18 99 1016.2
20260503025516 11 3 0.0 0.0 0.00 2.18 2.18 99 1016.1
20260503025014 11 334 3.2 3.2 0.00 2.18 2.18 99 1015.9
20260503024510 11 310 0.0 0.0 0.00 2.18 2.18 99 1015.8
20260503024007 11 35 0.0 0.0 0.00 2.18 2.18 99 1015.7
20260503023504 11 345 4.8 4.8 0.00 2.18 2.18 99 1015.6
20260503023001 11 310 0.0 0.0 0.00 2.18 2.18 99 1015.3
20260503022456 10 337 0.0 0.0 0.00 2.18 2.18 99 1015.2
20260503021952 10 336 0.0 0.0 0.00 2.18 2.18 99 1015.0
20260503021448 10 335 0.0 0.0 0.00 2.18 2.18 99 1015.2
20260503020946 10 336 0.0 0.0 0.00 2.18 2.18 99 1014.7
20260503020443 10 335 0.0 0.0 0.00 2.18 2.18 99 1014.9
20260503015939 10 335 0.0 0.0 0.00 2.18 2.18 99 1015.2
20260503015436 10 335 0.0 0.0 0.00 2.18 2.18 99 1014.8
20260503014932 10 335 0.0 0.0 0.00 2.18 2.18 99 1014.7
20260503014430 10 335 0.0 0.0 0.00 2.18 2.18 99 1014.8
20260503013928 10 335 0.0 0.0 0.00 2.18 2.18 99 1014.4
20260503013425 10 335 0.0 0.0 0.00 2.18 2.18 99 1014.6
20260503012922 10 335 0.0 0.0 0.00 2.18 2.18 99 1014.5
20260503012420 10 335 0.0 0.0 0.00 2.18 2.18 99 1014.3
20260503011915 10 335 0.0 0.0 0.00 2.18 2.18 98 1014.3
20260503011407 10 335 0.0 0.0 0.00 2.18 2.18 98 1013.6
20260503010904 10 335 0.0 0.0 0.00 2.18 2.18 98 1014.1
20260503010400 10 335 0.0 0.0 0.00 2.18 2.18 98 1013.8
20260503005857 10 335 0.0 0.0 0.00 2.18 2.18 98 1013.9
20260503005355 10 335 0.0 0.0 0.00 2.18 2.18 97 1013.7
20260503004851 10 335 0.0 0.0 0.00 2.18 2.18 97 1013.9
20260503004348 10 335 0.0 0.0 0.00 2.18 2.18 97 1013.8
20260503003846 10 335 0.0 0.0 0.00 2.18 2.18 97 1013.6
20260503003342 11 336 0.0 0.0 0.00 2.18 2.18 96 1013.7
20260503002839 11 340 0.0 0.0 0.00 2.18 2.18 96 1013.5
20260503002338 11 322 0.0 0.0 0.00 2.18 2.18 95 1013.5
20260503001833 11 322 0.0 0.0 0.00 2.18 2.18 95 1013.4
20260503001329 11 322 0.0 0.0 0.00 2.18 2.18 94 1013.1
20260503000827 11 321 0.0 0.0 0.00 2.18 2.18 94 1013.5
20260503000325 11 319 0.0 0.0 0.00 2.18 2.18 94 1013.4
20260502235821 11 320 0.0 0.0 0.00 2.18 2.18 93 1013.3
20260502235319 12 319 0.0 0.0 0.00 2.18 2.18 92 1013.3
20260502234815 12 319 0.0 0.0 0.00 2.18 2.18 91 1013.0
20260502234312 12 316 0.0 0.0 0.00 2.18 2.18 90 1013.0
20260502233808 12 308 0.0 0.0 0.00 2.18 2.18 89 1012.9
20260502233305 13 317 0.0 0.0 0.00 2.18 2.18 87 1012.6
20260502232802 13 304 0.0 0.0 0.00 2.18 2.18 87 1012.8
20260502232258 13 284 0.0 1.6 0.00 2.18 2.18 86 1012.4
20260502231755 13 278 0.0 0.0 0.00 2.18 2.18 86 1012.4
20260502231253 13 236 1.6 1.6 0.00 2.18 2.18 84 1012.4
20260502230751 14 316 0.0 0.0 0.00 2.18 2.18 85 1012.2
20260502230249 15 231 1.6 3.2 0.00 2.18 2.18 82 1012.2
20260502225744 15 310 0.0 0.0 0.00 2.18 2.18 82 1012.4
20260502225236 15 278 1.6 1.6 0.00 2.18 2.18 80 1012.3
20260502224732 15 230 0.0 0.0 0.00 2.18 2.18 81 1012.8